Time,TemperatureF,DewpointF,PressureIn,WindDirection,WindDirectionDegrees,WindSpeedMPH,WindSpeedGustMPH,Humidity,HourlyPrecipIn,Conditions,Clouds,dailyrainin,SolarRadiationWatts/m^2,SoftwareType,DateUTC
2013-08-19 00:01:00,52.0,52.0,-100.00,NNW,337,3.0,8.0,99,0.00,,,0.03,0.800000,,2013-08-19 08:01:00,
2013-08-19 00:11:00,52.0,52.0,-100.00,NNW,337,3.0,8.0,99,0.00,,,0.03,0.800000,,2013-08-19 08:11:00,
2013-08-19 00:21:00,52.0,52.0,-100.00,NNW,337,3.0,8.0,99,0.00,,,0.03,0.800000,,2013-08-19 08:21:00,
2013-08-19 00:52:00,51.0,51.0,-100.00,WNW,293,3.0,6.0,99,0.01,,,0.04,0.800000,,2013-08-19 08:52:00,
2013-08-19 01:01:00,51.0,51.0,-100.00,WNW,293,3.0,6.0,99,0.01,,,0.04,0.800000,,2013-08-19 09:01:00,
2013-08-19 01:11:00,51.0,51.0,-100.00,WNW,293,3.0,6.0,99,0.01,,,0.04,0.800000,,2013-08-19 09:11:00,
2013-08-19 01:21:00,51.0,51.0,-100.00,WNW,293,3.0,6.0,99,0.01,,,0.04,0.800000,,2013-08-19 09:21:00,
2013-08-19 01:53:00,52.0,51.0,-100.00,NW,317,2.0,6.0,96,0.00,,,0.04,0.800000,,2013-08-19 09:53:00,
2013-08-19 02:03:00,52.0,51.0,-100.00,NW,317,2.0,6.0,96,0.00,,,0.04,0.800000,,2013-08-19 10:03:00,
2013-08-19 02:12:00,52.0,51.0,-100.00,NW,317,2.0,6.0,96,0.00,,,0.04,0.800000,,2013-08-19 10:12:00,
2013-08-19 02:22:00,52.0,51.0,-100.00,NW,317,2.0,6.0,96,0.00,,,0.04,0.800000,,2013-08-19 10:22:00,
2013-08-19 02:52:00,52.0,51.0,-100.00,ENE,74,4.0,7.0,99,0.01,,,0.05,0.800000,,2013-08-19 10:52:00,
2013-08-19 03:02:00,52.0,51.0,-100.00,ENE,74,4.0,7.0,99,0.01,,,0.05,0.800000,,2013-08-19 11:02:00,
2013-08-19 03:12:00,52.0,51.0,-100.00,ENE,74,4.0,7.0,99,0.01,,,0.05,0.800000,,2013-08-19 11:12:00,
2013-08-19 03:21:00,52.0,51.0,-100.00,ENE,74,4.0,7.0,99,0.01,,,0.05,0.800000,,2013-08-19 11:21:00,
2013-08-19 03:52:00,52.0,50.0,-100.00,NNE,19,2.0,6.0,93,0.00,,,-99.99,0.800000,,2013-08-19 11:52:00,
2013-08-19 04:01:00,52.0,50.0,-100.00,NNE,19,2.0,6.0,93,0.00,,,-99.99,0.800000,,2013-08-19 12:01:00,
2013-08-19 04:11:00,52.0,50.0,-100.00,NNE,19,2.0,6.0,93,0.00,,,-99.99,0.800000,,2013-08-19 12:11:00,
2013-08-19 04:21:00,52.0,50.0,-100.00,NNE,19,2.0,6.0,93,0.00,,,-99.99,0.800000,,2013-08-19 12:21:00,
2013-08-19 04:52:00,52.0,49.0,-100.00,East,90,3.0,4.0,90,0.00,,,-99.99,0.800000,,2013-08-19 12:52:00,
2013-08-19 05:03:00,52.0,49.0,-100.00,East,90,3.0,4.0,90,0.00,,,-99.99,0.800000,,2013-08-19 13:03:00,
2013-08-19 05:13:00,52.0,49.0,-100.00,East,90,3.0,4.0,90,0.00,,,-99.99,0.800000,,2013-08-19 13:13:00,
2013-08-19 05:22:00,52.0,49.0,-100.00,East,90,3.0,4.0,90,0.00,,,-99.99,0.800000,,2013-08-19 13:22:00,
2013-08-19 05:52:00,52.0,46.0,-100.00,WSW,257,2.0,4.0,81,0.00,,,-99.99,0.800000,,2013-08-19 13:52:00,
2013-08-19 06:02:00,52.0,46.0,-100.00,WSW,257,2.0,4.0,81,0.00,,,-99.99,0.800000,,2013-08-19 14:02:00,
2013-08-19 06:11:00,52.0,46.0,-100.00,WSW,257,2.0,4.0,81,0.00,,,-99.99,0.800000,,2013-08-19 14:11:00,
2013-08-19 06:21:00,52.0,46.0,-100.00,WSW,257,2.0,4.0,81,0.00,,,-99.99,0.800000,,2013-08-19 14:21:00,
2013-08-19 06:52:00,52.0,47.0,-100.00,NW,321,1.0,3.0,81,0.00,,,0.05,1.100000,,2013-08-19 14:52:00,
2013-08-19 07:01:00,52.0,47.0,-100.00,NW,321,1.0,3.0,81,0.00,,,0.05,1.100000,,2013-08-19 15:01:00,
2013-08-19 07:11:00,52.0,47.0,-100.00,NW,321,1.0,3.0,81,0.00,,,0.05,1.100000,,2013-08-19 15:11:00,
2013-08-19 07:22:00,52.0,47.0,-100.00,NW,321,1.0,3.0,81,0.00,,,0.05,1.100000,,2013-08-19 15:22:00,
2013-08-19 07:54:00,51.0,45.0,-100.00,WSW,240,3.0,4.0,80,0.00,,,0.05,9.000000,,2013-08-19 15:54:00,
2013-08-19 08:05:00,51.0,45.0,-100.00,WSW,240,3.0,4.0,80,0.00,,,0.05,9.000000,,2013-08-19 16:05:00,
2013-08-19 08:13:00,51.0,45.0,-100.00,WSW,240,3.0,4.0,80,0.00,,,0.05,9.000000,,2013-08-19 16:13:00,
2013-08-19 08:23:00,51.0,45.0,-100.00,WSW,240,3.0,4.0,80,0.00,,,0.05,9.000000,,2013-08-19 16:23:00,
2013-08-19 08:28:00,53.0,-99.9,-100.00,East,90,2.0,4.0,82,0.00,,,0.05,46.900002,,2013-08-19 16:28:00,
2013-08-19 09:03:00,53.0,47.0,-100.00,East,90,2.0,4.0,82,0.00,,,0.05,46.900002,,2013-08-19 17:03:00,
2013-08-19 09:12:00,53.0,47.0,-100.00,East,90,2.0,4.0,82,0.00,,,0.05,46.900002,,2013-08-19 17:12:00,
2013-08-19 09:28:00,53.0,48.0,-100.00,NNE,21,2.0,4.0,81,0.00,,,0.05,106.300003,,2013-08-19 17:28:00,
2013-08-19 09:57:00,53.0,48.0,-100.00,NNE,21,2.0,4.0,81,0.00,,,0.05,106.300003,,2013-08-19 17:57:00,
2013-08-19 10:05:00,53.0,48.0,-100.00,NNE,21,2.0,4.0,81,0.00,,,0.05,106.300003,,2013-08-19 18:05:00,
2013-08-19 10:19:00,53.0,48.0,-100.00,NNE,21,2.0,4.0,81,0.00,,,0.05,106.300003,,2013-08-19 18:19:00,
2013-08-19 10:28:00,-999.0,-99.9,-100.00,NNE,19,2.0,4.0,78,0.00,,,0.05,190.100006,,2013-08-19 18:28:00,
2013-08-19 10:50:00,-999.0,-99.9,-100.00,NNE,19,2.0,4.0,78,0.00,,,0.05,190.100006,,2013-08-19 18:50:00,
2013-08-19 11:00:00,-999.0,-99.9,-100.00,NNE,19,2.0,4.0,78,0.00,,,0.05,190.100006,,2013-08-19 19:00:00,
2013-08-19 11:07:00,56.0,50.0,-100.00,NNE,19,2.0,4.0,78,0.00,,,0.05,190.100006,,2013-08-19 19:07:00,
2013-08-19 11:16:00,56.0,50.0,-100.00,NNE,19,2.0,4.0,78,0.00,,,0.05,190.100006,,2013-08-19 19:16:00,
2013-08-19 11:28:00,56.0,48.0,-100.00,ESE,106,2.0,4.0,76,0.00,,,0.05,245.000000,,2013-08-19 19:28:00,
2013-08-19 11:59:00,56.0,48.0,-100.00,ESE,106,2.0,4.0,76,0.00,,,0.05,245.000000,,2013-08-19 19:59:00,
2013-08-19 12:08:00,56.0,48.0,-100.00,ESE,106,2.0,4.0,76,0.00,,,0.05,245.000000,,2013-08-19 20:08:00,
2013-08-19 12:20:00,56.0,48.0,-100.00,ESE,106,2.0,4.0,76,0.00,,,0.05,245.000000,,2013-08-19 20:20:00,
2013-08-19 13:00:00,-999.0,-99.9,-100.00,SSW,206,2.0,4.0,-999,-99.99,,,-99.99,152.000000,,2013-08-19 21:00:00,
2013-08-19 13:08:00,54.0,45.0,-100.00,SSW,206,2.0,4.0,73,0.00,,,0.05,152.000000,,2013-08-19 21:08:00,
2013-08-19 13:16:00,54.0,45.0,-100.00,SSW,206,2.0,4.0,73,0.00,,,0.05,152.000000,,2013-08-19 21:16:00,
2013-08-19 13:24:00,54.0,45.0,-100.00,SSW,206,2.0,4.0,73,0.00,,,0.05,152.000000,,2013-08-19 21:24:00,
2013-08-19 13:55:00,52.0,49.0,-100.00,WNW,288,2.0,4.0,89,0.02,,,0.06,117.800003,,2013-08-19 21:55:00,
2013-08-19 14:06:00,52.0,49.0,-100.00,WNW,288,2.0,4.0,89,0.02,,,0.06,117.800003,,2013-08-19 22:06:00,
2013-08-19 14:25:00,52.0,49.0,-100.00,WNW,288,2.0,4.0,89,0.02,,,0.06,117.800003,,2013-08-19 22:25:00,
2013-08-19 14:55:00,53.0,50.0,-100.00,NW,321,2.0,9.0,90,0.00,,,0.05,134.100006,,2013-08-19 22:55:00,
2013-08-19 15:05:00,53.0,50.0,-100.00,NW,321,2.0,9.0,90,0.00,,,0.05,134.100006,,2013-08-19 23:05:00,
2013-08-19 15:15:00,53.0,50.0,-100.00,NW,321,2.0,9.0,90,0.00,,,0.05,134.100006,,2013-08-19 23:15:00,
2013-08-19 15:25:00,53.0,50.0,-100.00,NW,321,2.0,9.0,90,0.00,,,0.05,134.100006,,2013-08-19 23:25:00,
2013-08-19 15:55:00,53.0,48.0,-100.00,NW,325,3.0,6.0,86,0.00,,,0.05,105.099998,,2013-08-19 23:55:00,
2013-08-19 16:02:00,53.0,48.0,-100.00,NW,325,3.0,6.0,86,0.00,,,0.05,105.099998,,2013-08-20 00:02:00,
2013-08-19 16:11:00,53.0,48.0,-100.00,NW,325,3.0,6.0,86,0.00,,,0.05,105.099998,,2013-08-20 00:11:00,
2013-08-19 16:23:00,53.0,48.0,-100.00,NW,325,3.0,6.0,86,0.00,,,0.05,105.099998,,2013-08-20 00:23:00,
2013-08-19 16:52:00,52.0,48.0,-100.00,NE,52,5.0,6.0,86,0.00,,,0.04,89.500000,,2013-08-20 00:52:00,
2013-08-19 17:03:00,52.0,48.0,-100.00,NE,52,5.0,6.0,86,0.00,,,0.04,89.500000,,2013-08-20 01:03:00,
2013-08-19 17:11:00,52.0,48.0,-100.00,NE,52,5.0,6.0,86,0.00,,,0.04,89.500000,,2013-08-20 01:11:00,
2013-08-19 17:22:00,52.0,48.0,-100.00,NE,52,5.0,6.0,86,0.00,,,0.04,89.500000,,2013-08-20 01:22:00,
2013-08-19 17:52:00,52.0,49.0,-100.00,East,94,3.0,7.0,91,0.02,,,0.06,68.800003,,2013-08-20 01:52:00,
2013-08-19 18:02:00,52.0,49.0,-100.00,East,94,3.0,7.0,91,0.02,,,0.06,68.800003,,2013-08-20 02:02:00,
2013-08-19 18:11:00,52.0,49.0,-100.00,East,94,3.0,7.0,91,0.02,,,0.06,68.800003,,2013-08-20 02:11:00,
2013-08-19 18:21:00,52.0,49.0,-100.00,East,94,3.0,7.0,91,0.02,,,0.06,68.800003,,2013-08-20 02:21:00,
2013-08-19 18:52:00,50.0,50.0,-100.00,WSW,254,1.0,4.0,98,0.01,,,0.07,49.299999,,2013-08-20 02:52:00,
2013-08-19 19:02:00,50.0,50.0,-100.00,WSW,254,1.0,4.0,98,0.01,,,0.07,49.299999,,2013-08-20 03:02:00,
2013-08-19 19:11:00,50.0,50.0,-100.00,WSW,254,1.0,4.0,98,0.01,,,0.07,49.299999,,2013-08-20 03:11:00,
2013-08-19 19:22:00,50.0,50.0,-100.00,WSW,254,1.0,4.0,98,0.01,,,0.07,49.299999,,2013-08-20 03:22:00,
2013-08-19 19:54:00,49.0,49.0,-100.00,ENE,69,4.0,4.0,99,0.07,,,0.14,21.400000,,2013-08-20 03:54:00,
2013-08-19 20:03:00,49.0,49.0,-100.00,ENE,69,4.0,4.0,99,0.07,,,0.14,21.400000,,2013-08-20 04:03:00,
2013-08-19 20:13:00,49.0,49.0,-100.00,ENE,69,4.0,4.0,99,0.07,,,0.14,21.400000,,2013-08-20 04:13:00,
2013-08-19 20:23:00,49.0,49.0,-100.00,ENE,69,4.0,4.0,99,0.07,,,0.14,21.400000,,2013-08-20 04:23:00,
2013-08-19 20:53:00,49.0,49.0,-100.00,WNW,302,2.0,6.0,100,0.07,,,0.21,20.000000,,2013-08-20 04:53:00,
2013-08-19 21:02:00,49.0,49.0,-100.00,WNW,302,2.0,6.0,100,0.07,,,0.21,20.000000,,2013-08-20 05:02:00,
2013-08-19 21:12:00,49.0,49.0,-100.00,WNW,302,2.0,6.0,100,0.07,,,0.21,20.000000,,2013-08-20 05:12:00,
2013-08-19 21:21:00,49.0,49.0,-100.00,WNW,302,2.0,6.0,100,0.07,,,0.21,20.000000,,2013-08-20 05:21:00,
2013-08-19 21:52:00,50.0,50.0,-100.00,West,273,3.0,4.0,99,0.09,,,0.30,5.200000,,2013-08-20 05:52:00,
2013-08-19 22:01:00,50.0,50.0,-100.00,West,273,3.0,4.0,99,0.09,,,0.30,5.200000,,2013-08-20 06:01:00,
2013-08-19 22:11:00,50.0,50.0,-100.00,West,273,3.0,4.0,99,0.09,,,0.30,5.200000,,2013-08-20 06:11:00,
2013-08-19 22:21:00,50.0,50.0,-100.00,West,273,3.0,4.0,99,0.09,,,0.30,5.200000,,2013-08-20 06:21:00,
2013-08-19 22:52:00,51.0,49.0,-100.00,ENE,58,2.0,4.0,95,0.03,,,0.33,1.000000,,2013-08-20 06:52:00,
2013-08-19 23:01:00,51.0,49.0,-100.00,ENE,58,2.0,4.0,95,0.03,,,0.33,1.000000,,2013-08-20 07:01:00,
2013-08-19 23:11:00,51.0,49.0,-100.00,ENE,58,2.0,4.0,95,0.03,,,0.33,1.000000,,2013-08-20 07:11:00,
2013-08-19 23:21:00,51.0,49.0,-100.00,ENE,58,2.0,4.0,95,0.03,,,0.33,1.000000,,2013-08-20 07:21:00,
2013-08-19 23:52:00,50.0,49.0,-100.00,ESE,104,2.0,5.0,96,0.01,,,0.34,0.800000,,2013-08-20 07:52:00,